Weather History for KCLE - September, 2013

Change the Weather History Date:

Friday, September 20, 2013

  Actual Average Record
Temperature  
Mean Temperature 76 °F 63 °F  
Max Temperature 85 °F 72 °F 92 °F (1978)
Min Temperature 67 °F 55 °F 40 °F (1956)
Degree Days  
Heating Degree Days 0 4  
Month to date heating degree days 38 37  
Since 1 July heating degree days 45 49  
Cooling Degree Days 11 2  
Month to date cooling degree days 93 73  
Year to date cooling degree days 855 788  
Growing Degree Days 25 (Base 50)    
Moisture  
Dew Point 67 °F    
Average Humidity 74    
Maximum Humidity 87    
Minimum Humidity 61    
Precipitation  
Precipitation 0.74 in 0.13 in 0.76 in (2002)
Month to date precipitation 1.01 2.53  
Year to date precipitation 29.22 28.07  
Snow  
Snow 0.00 in 0.00 in - ()
Month to date snowfall 0.0 0.0  
Since 1 July snowfall 0.0 0.0  
Since 1 September snowfall 0.0 0.0  
Snow Depth 0.00 in    
Sea Level Pressure  
Sea Level Pressure 29.87 in    
Wind  
Wind Speed 12 mph (SSW)    
Max Wind Speed 22 mph    
Max Gust Speed 26 mph    
Visibility 8 miles    
Events Rain , Thunderstorm    
T = Trace of Precipitation, MM = Missing Value Source: NWS Daily Summary

Daily Weather History Graph

Daily Weather History Graph

Search for Another Location

Airport or City:

Trip Planner

Search our weather history database for the weather conditions in past years. The results will help you decide how hot, cold, wet, or windy it might be!

Date:

Astronomy

Sep. 20, 2013 Rise Set
Actual Time 7:13 AM EDT 7:27 PM EDT
Civil Twilight 6:45 AM EDT 7:55 PM EDT
Nautical Twilight 6:12 AM EDT 8:27 PM EDT
Astronomical Twilight 5:39 AM EDT 9:00 PM EDT
Moon 7:59 PM EDT (9/20) 8:27 AM EDT (9/20)
Length of Visible Light 13h 09m
Length of Day
12h 14m
Full, 98% of the Moon is Illuminated
Sep 20
Full
Sep 26
Last Quarter
Oct 4
New
Oct 11
First Quarter
Oct 18
Full

Hourly Weather History & Observations

Time (EDT) Temp. Heat Index Dew Point Humidity Pressure Visibility Wind Dir Wind Speed Gust Speed Precip Events Conditions
12:51 AM 69.1 °F - 64.0 °F 84% 30.00 in 6.0 mi South 8.1 mph - N/A   Haze
1:51 AM 69.1 °F - 64.0 °F 84% 29.99 in 6.0 mi South 10.4 mph - N/A   Haze
2:51 AM 68.0 °F - 63.0 °F 84% 29.99 in 6.0 mi South 8.1 mph - N/A   Haze
3:51 AM 68.0 °F - 64.0 °F 87% 29.97 in 6.0 mi South 9.2 mph - N/A   Scattered Clouds
4:51 AM 68.0 °F - 64.0 °F 87% 29.96 in 6.0 mi South 10.4 mph - N/A   Mostly Cloudy
5:51 AM 69.1 °F - 64.9 °F 87% 29.94 in 7.0 mi South 10.4 mph - N/A   Mostly Cloudy
6:51 AM 69.1 °F - 64.9 °F 87% 29.94 in 6.0 mi South 10.4 mph - 0.00 in   Mostly Cloudy
7:51 AM 69.1 °F - 64.9 °F 87% 29.95 in 5.0 mi South 11.5 mph - N/A   Mostly Cloudy
8:51 AM 72.0 °F - 66.0 °F 81% 29.93 in 6.0 mi South 12.7 mph - N/A   Haze
9:51 AM 73.0 °F - 66.9 °F 81% 29.94 in 6.0 mi South 11.5 mph - N/A   Haze
10:51 AM 77.0 °F - 68.0 °F 74% 29.93 in 8.0 mi SSW 10.4 mph - N/A   Mostly Cloudy
11:51 AM 80.1 °F 82.9 °F 69.1 °F 69% 29.91 in 10.0 mi SSW 12.7 mph - N/A   Mostly Cloudy
12:51 PM 81.0 °F 84.1 °F 69.1 °F 67% 29.89 in 10.0 mi South 13.8 mph - N/A   Mostly Cloudy
1:51 PM 84.0 °F 87.8 °F 69.1 °F 61% 29.87 in 10.0 mi SSW 12.7 mph - N/A   Mostly Cloudy
2:51 PM 82.9 °F 85.8 °F 68.0 °F 60% 29.84 in 10.0 mi South 13.8 mph - N/A   Scattered Clouds
3:51 PM 84.0 °F 87.8 °F 69.1 °F 61% 29.81 in 10.0 mi South 12.7 mph 23.0 mph N/A   Mostly Cloudy
4:51 PM 82.0 °F 84.9 °F 68.0 °F 62% 29.79 in 10.0 mi SSE 16.1 mph - N/A   Overcast
5:21 PM 82.0 °F 84.9 °F 68.0 °F 62% 29.81 in 10.0 mi SW 15.0 mph - N/A Thunderstorm Thunderstorm
5:30 PM 80.1 °F 82.7 °F 68.0 °F 67% 29.81 in 10.0 mi SW 4.6 mph - 0.00 in Rain , Thunderstorm Light Thunderstorms and Rain
5:51 PM 82.0 °F 84.9 °F 68.0 °F 62% 29.78 in 10.0 mi South 15.0 mph 20.7 mph 0.00 in   Overcast
6:51 PM 80.1 °F 82.3 °F 66.9 °F 64% 29.78 in 10.0 mi South 12.7 mph - N/A   Scattered Clouds
7:51 PM 79.0 °F - 68.0 °F 69% 29.77 in 10.0 mi South 12.7 mph 20.7 mph 0.01 in   Mostly Cloudy
8:49 PM 75.2 °F - 66.2 °F 73% 29.81 in 10.0 mi West 20.7 mph 26.5 mph N/A   Overcast
8:51 PM 73.9 °F - 66.0 °F 76% 29.79 in 10.0 mi West 18.4 mph 26.5 mph N/A   Overcast
8:58 PM 73.9 °F - 66.0 °F 76% 29.82 in 10.0 mi West 18.4 mph 26.5 mph N/A   Overcast
9:19 PM 70.0 °F - 68.0 °F 93% 29.82 in 4.0 mi WSW 13.8 mph 21.9 mph 0.04 in Rain Light Rain
9:26 PM 70.0 °F - 68.0 °F 93% 29.84 in 1.8 mi SSW 12.7 mph - 0.11 in Rain , Thunderstorm Heavy Thunderstorms and Rain
9:51 PM 70.0 °F - 68.0 °F 93% 29.82 in 3.0 mi SW 8.1 mph - 0.44 in Rain , Thunderstorm Thunderstorms and Rain
10:27 PM 70.0 °F - 68.0 °F 93% 29.83 in 10.0 mi SSW 6.9 mph - 0.06 in Rain Light Rain
10:51 PM 70.0 °F - 66.9 °F 90% 29.81 in 10.0 mi SSW 9.2 mph - 0.07 in   Overcast
11:51 PM 69.1 °F - 66.9 °F 93% 29.80 in 6.0 mi SSW 10.4 mph - 0.11 in Rain Light Rain